CYGNUS NG-14 (46530 NORAD) Tracking and Keplerian Element Data

This shows tracking and keplerian element data for the satellite.

Feedback or suggestion? Click here.




ElementValue
Catalog46530
NameCYGNUS NG-14
Epoch Orbit395
Epoch Day302.54883659
Epoch Year2020
RAAN48.584
Inclination51.6458
Eccentricity0.0001737
Argument of Perigee71.0418
Mean Anonmoly294.9082
Mean Motion15.49346667
Decay Rate1.783E-05
L11 46530U 20069A 20302.54883659 .00001783 00000-0 40043-4 0 9994
L22 46530 51.6458 48.5840 0001737 71.0418 294.9082 15.49346667 3959

Live tracking and technical data element details for CYGNUS NG-14 (NORAD 46530). CYGNUS NG-14 can be tracked NOW for your location showing map with azimuth and elevation plus other details from your city location.

Track the satellite on the map from your city or location and see movement details for azimuth, elevation, latitude, longitude, range, height, and movement on the map or in text.







IsCatalogInMostPopularTable: catalog: 46530, numindb: 6
Update: records affected: 1



GetName: 46530 CYGNUS NG-14

Hit Count: updated at: Fri, 30 Oct 2020 01:26:14 GMT